TimeCDT,TemperatureF,Dew PointF,Humidity,Sea Level PressureIn,VisibilityMPH,Wind Direction,Wind SpeedMPH,Gust SpeedMPH,PrecipitationIn,Events,Conditions,WindDirDegrees,DateUTC
12:04 AM,53.6,53.6,100,29.99,0.5,Calm,Calm,-,N/A,Fog,Fog,0,2012-10-03 05:04:00
12:17 AM,51.8,51.8,100,29.99,2.0,Calm,Calm,-,N/A,,Clear,0,2012-10-03 05:17:00
12:33 AM,51.8,51.8,100,29.99,0.8,Calm,Calm,-,N/A,,Clear,0,2012-10-03 05:33:00
12:46 AM,51.8,51.8,100,29.99,2.5,Calm,Calm,-,N/A,,Clear,0,2012-10-03 05:46:00
12:51 AM,51.8,51.8,100,29.99,0.8,Calm,Calm,-,N/A,,Clear,0,2012-10-03 05:51:00
12:53 AM,52.0,51.1,97,30.01,0.5,Calm,Calm,-,N/A,Fog,Fog,0,2012-10-03 05:53:00
1:28 AM,51.8,51.8,100,30.00,1.0,SSE,3.5,-,N/A,,Clear,150,2012-10-03 06:28:00
1:43 AM,51.8,51.8,100,30.00,0.8,Calm,Calm,-,N/A,,Clear,0,2012-10-03 06:43:00
1:48 AM,51.8,51.8,100,30.00,2.5,Calm,Calm,-,N/A,,Clear,0,2012-10-03 06:48:00
1:53 AM,52.0,51.1,97,30.02,4.0,Calm,Calm,-,N/A,,Clear,0,2012-10-03 06:53:00
2:08 AM,51.8,50.0,94,30.00,1.8,Calm,Calm,-,N/A,,Clear,0,2012-10-03 07:08:00
2:21 AM,51.8,51.8,100,30.00,2.5,Calm,Calm,-,N/A,,Clear,0,2012-10-03 07:21:00
2:32 AM,51.8,51.8,100,30.00,3.0,Calm,Calm,-,N/A,,Scattered Clouds,0,2012-10-03 07:32:00
2:53 AM,55.0,54.0,96,30.02,5.0,Calm,Calm,-,N/A,,Overcast,0,2012-10-03 07:53:00
3:53 AM,57.0,55.9,96,30.01,7.0,Calm,Calm,-,N/A,,Mostly Cloudy,0,2012-10-03 08:53:00
4:53 AM,57.0,55.9,96,30.03,8.0,Calm,Calm,-,N/A,,Mostly Cloudy,0,2012-10-03 09:53:00
5:53 AM,60.1,59.0,96,30.05,8.0,Calm,Calm,-,0.00,,Overcast,0,2012-10-03 10:53:00
6:53 AM,60.1,57.9,93,30.07,4.0,SE,4.6,-,0.05,Rain-Thunderstorm,Light Rain,140,2012-10-03 11:53:00
7:12 AM,60.8,57.2,88,30.05,10.0,SSE,4.6,-,0.00,Rain,Light Rain,160,2012-10-03 12:12:00
7:53 AM,59.0,55.9,90,30.06,10.0,SSE,4.6,-,0.00,,Partly Cloudy,150,2012-10-03 12:53:00
8:53 AM,64.9,60.1,84,30.09,10.0,East,3.5,-,N/A,,Clear,100,2012-10-03 13:53:00
9:53 AM,70.0,61.0,73,30.11,10.0,East,3.5,-,N/A,,Clear,90,2012-10-03 14:53:00
10:53 AM,73.9,62.1,66,30.11,10.0,SE,5.8,-,N/A,,Clear,130,2012-10-03 15:53:00
11:53 AM,77.0,61.0,58,30.10,10.0,South,8.1,-,N/A,,Clear,180,2012-10-03 16:53:00
12:53 PM,79.0,61.0,54,30.09,10.0,South,9.2,-,N/A,,Clear,170,2012-10-03 17:53:00
1:53 PM,79.0,59.0,50,30.06,10.0,South,9.2,-,N/A,,Scattered Clouds,180,2012-10-03 18:53:00
3:53 PM,81.0,57.9,45,30.05,10.0,South,5.8,-,N/A,,Clear,180,2012-10-03 20:53:00
4:53 PM,80.1,57.9,47,30.05,10.0,South,5.8,-,N/A,,Partly Cloudy,170,2012-10-03 21:53:00
5:53 PM,78.1,61.0,56,30.06,10.0,SSE,4.6,-,N/A,,Clear,160,2012-10-03 22:53:00
6:53 PM,66.9,63.0,87,30.07,10.0,SSE,3.5,-,N/A,,Clear,150,2012-10-03 23:53:00
8:53 PM,66.9,64.0,90,30.11,10.0,ESE,4.6,-,N/A,,Clear,120,2012-10-04 01:53:00
9:53 PM,64.9,63.0,93,30.12,10.0,ESE,4.6,-,N/A,,Clear,120,2012-10-04 02:53:00
10:53 PM,61.0,60.1,97,30.14,6.0,SE,3.5,-,N/A,,Clear,130,2012-10-04 03:53:00
11:53 PM,61.0,60.1,97,30.14,5.0,Calm,Calm,-,N/A,,Clear,0,2012-10-04 04:53:00